Location: Rowland
(34.5359°N, 79.2929°W)
Time: 15:41:18
(UTC+00:00)

S-56A Canister/Altair - Pass Details

Date: 12 October 2022
Orbit: 638 x 2494 km, 38.9° (Epoch: 06 December)

Event Time Altitude Azimuth Distance (km) Brightness Sun altitude
Rises 02:07:31 0° 225° (SW) 5,963 12.3 -41.3°
Reaches altitude 10° 02:11:21 10° 222° (SW) 5,063 11.8 -42.0°
Enters shadow 02:21:02 45° 199° (SSW) 3,112 10.3 -43.8°
